Location: Bremen
(53.0796°N, 8.8241°E)
Time: 03:00:11
(UTC+01:00)

ISS - Pass Details

Date: 15 November 2017
Orbit: 402 x 407 km, 51.6° (Epoch: 23 November)

Event Time Altitude Azimuth Distance (km) Brightness Sun altitude
Exits shadow 04:55:11 16° 137° (SE) 1,128 -1.2 -25.8°
Drops below altitude 10° 04:56:03 10° 130° (SE) 1,454 -0.5 -25.6°
Sets 04:58:12 0° 123° (ESE) 2,311 0.8 -25.3°
